{"data":{"norad_id":54161,"epoch":"2026-05-24T23:37:14.576736Z","epoch_age_seconds":69611,"freshness":"FRESH","line1":"1 54161U 22141E   26144.98419649 -.00003633  00000+0 -21018-3 0  9995","line2":"2 54161  53.2131  31.7248 0001557  98.4833 261.6336 15.08856573197239","mean_motion":15.08856573,"eccentricity":0.0001557,"inclination_deg":53.2131,"raan_deg":31.7248,"arg_perigee_deg":98.4833,"mean_anomaly_deg":261.6336,"bstar":-0.00021018,"rev_number":19723,"period_min":95.436506409413,"perigee_km":538.61562630757,"apogee_km":540.76983848624,"semimajor_km":6917.8297323969,"source":"CELESTRAK","updated_at":"2026-05-25T13:38:17.659780Z"}}